Время (UTC), дата Ветер
(°,м/с) 
Видим.   Явления Облачность Т
(°С)
Тd
(°С)
f(%) Тe
(°С)
Pmin
(гПа)
dP
(гПа)
Po
(мм)
O2
(г/м3)
Тmin Tmax R s Состояние
почвы
00 01.10.17 360 (С) 10 км  {дождь}  10/10 600 м 
[Sc]
+3.7 +2.6 92 +2  1022.9  756  300           
03 01.10.17 040 (СВ) 10 км    10/10 300 м 
[St]
+5.4 +4.2 92 +6  1024  1.2  757  298  +3.6    0.8    влажная 
06 01.10.17 070 (В) 10 км    10/10 300 м 
[Sc]
+5.9 +3.8 86 +4  1026  758  299           
09 01.10.17 030 (СВ) 10 км  {морось}  10/10 300 м 
[Sc]
+5.8 +3.4 85 +5  1027.2  1.2  759  299           
12 01.10.17 040 (СВ) 10 км  {морось}  10/10 600 м 
[Sc]
+5.4 +2.6 82 +4  1028.2  760  300           
15 01.10.17 060 (СВ) 10 км    10/10 600 м 
[Sc]
+4.7 +2.1 83 +4  1029.1  0.9  761  301    +6.5       
18 01.10.17 360 (С) 10 км    9/0 средняя 
[Ac trans]
+3.5 +0.2 79 +3  1029.8  0.6  761  303           
21 01.10.17 360 (С) 10 км    8/0 средняя 
[Ac lent]
+2.9 -0.8 77 +4  1029.2  -0.6  761  303           
00 02.10.17 320 (СЗ) 10 км    9/0 средняя 
[Ac trans]
+0.8 -1.1 87 +1  1029.1  -0.2  761  306           
03 02.10.17 350 (С) 10 км    8/0 верхняя 
[Ci sp]
+0.1 -1.8 87 -1  1029.5  0.3  761  307  +0.1        влажная 
06 02.10.17 070 (В) 10 км    6/3 600 м средняя, верхняя 
[Sc diur, vesp|Ac As|Cc]
+3.4 -1.4 71 +3  1029.7  0.4  761  303  -0.1         
09 02.10.17 010 (С) 10 км    9/9 300 м кучево-дожд. 
[Cb cap]
+5 -2.1 60 +5  1029  -0.6  761  301           
12 02.10.17 340 (С) 10 км    8/8 300 м кучево-дожд. 
[Cb cap]
+6 -1.4 59 +6  1028.3  -0.7  760  300           
15 02.10.17 320 (СЗ) 10 км    9/6 600 м средняя 
[Sc diur, vesp|Ac cast]
+5.1 -0.9 65 +6  1028.5  0.2  760  301    +6.7       
18 02.10.17 320 (СЗ) 10 км    9/0 средняя 
[Ac cast]
+4.4 +0.8 77 +5  1028.6  0.1  760  301           
21 02.10.17 330 (СЗ) 10 км    8/4 300 м средняя 
[Sc|Ac cast]
+4 +1 81 +5  1028.6  0.1  760  302           
00 03.10.17 350 (С) 10 км    8/0 верхняя 
[Ci fib]
+2.2 +0.2 87 +3  1028.5  0.1  760  304           
03 03.10.17 300 (СЗ) 10 км    10/3 600 м средняя, верхняя 
[Sc|Ac cast|Cc]
+2.3 +0.3 87 +3  1028.6  0.1  760  304  +2        сухая 
06 03.10.17 280 (З) 10 км    10/10 1000 м 
[Sc]
+4.5 +2.1 84 +4  1028.3  -0.2  760  301           
09 03.10.17 320 (СЗ) 10 км    10/10 600 м 
[Sc]
+6.7 +3 77 +6  1027.5  -0.7  760  298           
12 03.10.17 310 (СЗ) 10 км    10/10 600 м 
[Sc]
+8 +3.4 73 +8  1026.7  -0.7  759  297           
15 03.10.17 300 (СЗ) 10 км    9/9 300 м 
[Sc]
+7.6 +3 73 +8  1026.9  0.2  759  297    +8.1       
18 03.10.17 300 (СЗ) 10 км    10/6 300 м средняя 
[Sc|As op]
+6.5 +1.8 72 +5  1027.3  0.3  759  299           
21 03.10.17 310 (СЗ) 10 км    10/6 300 м средняя 
[Sc|As op]
+5.5 +1.5 75 +4  1027.4  0.1  759  300           
00 04.10.17 310 (СЗ) 10 км    10/10 300 м 
[Sc]
+4.6 +1.1 78 +4  1027.8  0.3  760  301           
03 04.10.17 300 (СЗ) 10 км    10/10 300 м 
[Sc]
+3.8 +0.9 81 +3  1028  0.2  760  302  +3.8        сухая 
06 04.10.17 300 (СЗ) 10 км    10/10 300 м 
[Sc]
+3.2 +0.4 82 +3  1028.1  0.1  760  303  +2.8         
09 04.10.17 280 (З) 10 км    10/10 600 м 
[Sc]
+3.4 +0.3 80 +3  1027.8  -0.3  760  302           
12 04.10.17 260 (З) 10 км    10/10 600 м 
[Sc]
+3.4 +0.7 82 +3  1027.4  -0.4  759  302           
15 04.10.17 240 (ЮЗ) 10 км    10/10 600 м 
[Sc]
+2.5 -0.3 82 +1  1026.5  -0.9  759  303    +3.8       
18 04.10.17 250 (З) 10 км    10/10 600 м 
[Sc]
+1.9 -0.4 85 +1  1026.1  -0.4  758  303           
21 04.10.17 250 (З) 10 км    10/10 600 м 
[Sc]
+1.3 -1 85 +1  1025.3  -0.8  758  304           
00 05.10.17 140 (ЮВ) 10 км    10/5 600 м средняя 
[Sc|Ac As]
+1.3 -0.9 85 +1  1023.6  -1.7  756  303           
03 05.10.17 140 (ЮВ) 10 км    10/5 300 м средняя 
[St|As op]
+2.3 +0.4 87 +1  1021.4  -2.1  755  302  +1.2        сухая 
06 05.10.17 160 (Ю) 10 км    9/3 300 м средняя 
[St|Ac trans]
+4.7 +2.2 84 +4  1020.1  -1.1  754  298           
09 05.10.17 160 (Ю) 10 км    8/0 верхняя 
[Ci sp]
+9.2 +2.7 64 +9  1018.4  -1.4  753  293           
12 05.10.17 190 (Ю) 10 км    9/0 верхняя 
[Ci sp]
+11 +0.8 49 +11  1016.8  -1.5  752  291           
15 05.10.17 140 (ЮВ) 10 км    10/0 средняя 
[Ac As]
+8.7 +2 63 +9  1015.9  -1  751  293    +11.5       
18 05.10.17 140 (ЮВ) 10 км    10/0 средняя 
[Ac As]
+7.7 +1.4 64 +8  1014.9  -1  750  294           
21 05.10.17 140 (ЮВ) 10 км    10/0 средняя 
[As trans]
+7.9 +1.1 62 +7  1013.1  -1.7  749  293           
00 06.10.17 140 (ЮВ) 10 км    10/0 средняя 
[As trans]
+8 +0.6 59 +7  1011.7  -1.4  748  293           
03 06.10.17 140 (ЮВ) 10 км  слаб. дождь  10/10 300 м 
[Ns]
+6.4 +3.3 81 +5  1010.6  -1.1  747  294  +6.3    0.8    влажная 
06 06.10.17 160 (Ю) 10 км  слаб. дождь  10/10 200 м 
[Frnb]
+7.1 +5.5 90 +7  1010.8  0.2  747  293           
09 06.10.17 150 (ЮВ) 10 км  в посл. час морось{дождь}  10/10 200 м 
[Frnb]
+8 +6.5 90 +8  1011.1  0.3  747  292           
12 06.10.17 150 (ЮВ) 10 км  слаб. дождь  10/10 300 м 
[Frnb|Ns]
+7.7 +6.7 93 +7  1010.1  -1  747  291           
15 06.10.17 150 (ЮВ) 10 км  дождь  10/10 300 м 
[]
+8.9 +7.6 92 +9  1009.1  -0.9  746  290    +9.1     
18 06.10.17 140 (ЮВ) 4{11}  10 км  слаб. дождь  10/10 300 м 
[Frnb|Ns]
+9.3 +7.5 89 +8  1007.4  -1.6  745  289           
21 06.10.17 150 (ЮВ) 10 км  слаб. ливневой дождь  10/10 300 м кучево-дожд. 
[Cb cap]
+10 +8.3 89 +10  1006.2  -1.2  744  288           
00 07.10.17 160 (Ю) 10 км  слаб. ливневой дождь  10/10 300 м кучево-дожд. 
[Cb cap]
+10.4 +8.9 90 +10  1005.3  -0.9  743  287           
03 07.10.17 170 (Ю) 3{11}  10 км  {ливн. осадки}  10/10 200 м кучево-дожд. 
[Cb cap]
+10.7 +9.4 92 +11  1005.6  0.3  743  287  +8.7    10    мокрая 
06 07.10.17 250 (З) 2{11}  10 км  в посл. час ливневой дождь  10/10 300 м кучево-дожд. 
[Cb cap]
+12.5 +10.5 88 +15  1007.2  1.7  745  285           
09 07.10.17 250 (З) 5{12}  10 км  {ливн. осадки}  8/6 600 м кучево-дожд., средняя 
[Cb cap|Ac cast]
+12.9 +7.3 69 +12  1010.3  747  286           
12 07.10.17 240 (ЮЗ) 2{11}  10 км  {ливн. осадки}  9/5 600 м кучево-дожд., средняя 
[Cb cap|Ac cast]
+11.9 +7.5 74 +12  1012.9  2.5  749  288           
15 07.10.17 230 (ЮЗ) 10 км    8/4 600 м средняя 
[Sc diur, vesp|Ac lent]
+10.6 +6.3 75 +12  1015.3  2.3  751  290    +13     
18 07.10.17 200 (Ю) 10 км    8/3 600 м средняя 
[Sc|Ac lent]
+8 +6 87 +9  1017  1.6  752  293           
21 07.10.17 150 (ЮВ) 10 км    8/0 средняя 
[Ac lent]
+7.6 +6.2 91 +9  1018.1  753  294           
00 08.10.17 140 (ЮВ) 10 км    10/0 средняя 
[As op]
+7.3 +6.2 93 +8  1018.6  0.5  753  294           
03 08.10.17 150 (ЮВ) 10 км    10/4 600 м средняя 
[Sc|Ac As]
+7.3 +6.1 92 +8  1019.9  1.3  754  295  +7        влажная 
06 08.10.17 тихо ()   10 км    5/0 верхняя 
[Cs]
+8.4 +7.1 92 +8  1021.7  1.9  755  294  +6.9         
09 08.10.17 260 (З) 10 км    5/1 1000 м верхняя 
[Cu hum|Ci fib]
+12.2 +7.5 73 +13  1022.7  1.1  756  290           
12 08.10.17 270 (З) 10 км    6/0 верхняя 
[Cs]
+12.8 +7.4 70 +14  1023.5  0.8  757  290           
15 08.10.17 110 (В) 10 км    1/0 средняя 
[Ac lent]
+9.3 +7.2 87 +10  1024.6  0.9  758  294    +13.3       
18 08.10.17 090 (В) 10 км    ясно 
+8.1 +6.7 91 +9  1025.3  0.6  758  296           
21 08.10.17 110 (В) 10 км    ясно 
+7.1 +6 93 +7  1025.3  758  297           
00 09.10.17 090 (В) 2000 м  дымка  10/10 600 м 
[Sc]
+6.6 +5.9 95 +6  1025.3  758  297           
03 09.10.17 100 (В) 4000 м  дымка  10/10 600 м 
[Sc]
+7 +6.2 95 +7  1025  -0.3  758  297  +6.2        влажная 
06 09.10.17 110 (В) 10 км    9/0 средняя 
[Ac trans]
+9.6 +7.5 87 +10  1025  0.1  758  294           
09 09.10.17 120 (ЮВ) 10 км    8/0 верхняя 
[Cs]
+14.9 +2.5 43 +15  1024.6  0.1  758  289           
12 09.10.17 140 (ЮВ) 10 км    6/0 верхняя 
[Ci fib]
+16.1 -1.4 30 +17  1023.9  -0.7  757  288           
15 09.10.17 090 (В) 10 км    3/0 верхняя 
[Ci fib]
+11.9 +1 47 +12  1023.6  -0.5  757  292    +16.4       
18 09.10.17 100 (В) 10 км    ясно 
+10.3 -0.1 48 +11  1023.5  -0.2  757  294           
21 09.10.17 120 (ЮВ) 10 км    6/0 верхняя 
[Cs]
+9.6 -1.5 46 +10  1023.4  0.1  757  295           
00 10.10.17 100 (В) 10 км    6/0 верхняя 
[Cs]
+7 -2.4 51 +8  1023.1  -0.5  756  297           
03 10.10.17 090 (В) 10 км    ясно 
+5.3 -3.3 54 +5  1022.1  -1.1  755  299  +5.3        влажная 
06 10.10.17 150 (ЮВ) 10 км    4/1 600 м кучево-дожд., средняя 
[Cb cap|Ac cast]
+8.5 -2.8 45 +8  1022  0.1  756  296  +5         
09 10.10.17 140 (ЮВ) 10 км    9/1 600 м кучево-дожд., средняя, верхняя 
[Cb cap|Ac cast|Ci sp]
+11.1 -1.9 40 +11  1021  -0.9  755  292           
12 10.10.17 140 (ЮВ) 10 км    9/3 600 м кучево-дожд., верхняя 
[Cb cap|Ci ing]
+13.2 -2.1 35 +14  1019.8  -1  754  290           
15 10.10.17 100 (В) 10 км    3/0 верхняя 
[Ci fib]
+10.6 -2.9 39 +11  1019.4  -0.6  754  293    +15.4       
18 10.10.17 100 (В) 10 км    5/0 верхняя 
[Ci]
+9.1 -2.8 43 +9  1019  -0.4  753  294           
21 10.10.17 090 (В) 10 км    8/0 верхняя 
[Ci]
+7.5 -2.3 50 +8  1018.3  -0.8  753  295           
00 11.10.17 090 (В) 10 км    6/0 средняя, верхняя 
[Ac cast|Ci fib]
+5.8 -1.8 58 +6  1018  -0.4  752  297           
03 11.10.17 100 (В) 10 км    10/0 средняя, верхняя 
[Ac cast|Ci]
+5.2 -1.9 60 +5  1017.8  -0.2  752  298  +4.9        влажная 
06 11.10.17 150 (ЮВ) 10 км    10/0 средняя 
[Ac As]
+6.9 +0.8 65 +8  1018.3  0.6  753  296           
09 11.10.17 220 (ЮЗ) 10 км  {дождь}  10/6 600 м средняя 
[Sc|As op]
+6.9 +2.9 76 +8  1018.8  0.5  753  296           
12 11.10.17 250 (З) 10 км  {ливн. осадки, дождь}  10/10 600 м 
[Sc]
+7.8 +5 82 +9  1019.3  0.5  754  294           
15 11.10.17 240 (ЮЗ) 10 км    8/0 средняя 
[Sc|Ac lent]
+7.7 +5.6 87 +9  1019.9  0.6  754  295    +8  0.5     
18 11.10.17 тихо ()   10 км    3/0 средняя, верхняя 
[Ac lent|Ci fib]
+4.5 +3.5 93 +5  1020.5  0.6  754  298           
21 11.10.17 тихо ()   10 км    ясно 
+3 +2.3 95 +3  1020.8  0.2  754  300           
00 12.10.17 тихо ()   10 км    ясно 
+2.4 +2.4 100 +2  1020.6  -0.3  754  301           
03 12.10.17 100 (В) 10 км    ясно 
+1.9 +1.9 100 +3  1020.3  -0.3  754  301  +1.7        замёрзшая 
06 12.10.17 150 (ЮВ) 10 км  дымка  ясно 
+4.3 +4.3 100 +5  1020.2  754  298           
09 12.10.17 140 (ЮВ) 10 км    3/0 средняя 
[Ac lent]
+9.9 +3.4 64 +11  1019.1  -0.8  754  292           
12 12.10.17 140 (ЮВ) 10 км    3/1 600 м средняя 
[Sc|Ac lent]
+11 +3.5 60 +12  1017.8  -1.2  753  291           
15 12.10.17 120 (ЮВ) 10 км    1/1 600 м 
[Sc]
+7.7 +3.3 74 +9  1017.5  -0.5  752  294    +12.3       
18 12.10.17 100 (В) 10 км    1/0 средняя 
[Ac lent]
+6.2 +2.2 76 +6  1016.7  -0.8  752  296           
21 12.10.17 120 (ЮВ) 10 км    9/9 600 м 
[Sc]
+6.6 +2.1 73 +8  1015.3  -1.4  751  295           
00 13.10.17 140 (ЮВ) 10 км    10/10 600 м 
[Sc]
+7 +3.2 77 +6  1014  -1.2  750  294           
03 13.10.17 140 (ЮВ) 10 км    10/10 600 м 
[Sc]
+6.9 +4.7 86 +7  1013.3  -0.7  749  294  +5.8        влажная 
06 13.10.17 150 (ЮВ) 10 км    9/6 600 м средняя 
[Sc|Ac trans]
+7.8 +4.9 82 +8  1013.1  0.1  749  293           
09 13.10.17 140 (ЮВ) 10 км    9/8 600 м средняя 
[Sc|Ac trans]
+8.1 +5 81 +8  1012.9  -0.3  749  292           
12 13.10.17 140 (ЮВ) 10 км    10/10 600 м 
[Sc]
+8.7 +6.2 84 +9  1012.6  -0.2  749  291           
15 13.10.17 130 (ЮВ) 10 км    9/9 600 м 
[Sc]
+8.5 +5.1 79 +9  1012.7  749  292    +8.8       
18 13.10.17 120 (ЮВ) 10 км    ясно 
+6.7 +4.8 88 +8  1012  -0.7  748  293           
21 13.10.17 120 (ЮВ) 10 км    9/0 средняя 
[Ac trans]
+6.4 +5.1 91 +7  1011.4  -0.7  748  294           
00 14.10.17 120 (ЮВ) 10 км    10/0 средняя 
[Ac As]
+6.9 +5.5 91 +7  1010  -1.3  747  293           
03 14.10.17 120 (ЮВ) 10 км    10/10 600 м 
[Sc]
+7.7 +5.8 88 +8  1009.5  -0.4  746  292  +5.8        влажная 
06 14.10.17 140 (ЮВ) 10 км  {морось}  10/10 300 м 
[Sc]
+8.4 +5.9 84 +8  1009.3  -0.2  746  291           
09 14.10.17 140 (ЮВ) 10 км    10/10 600 м 
[Sc]
+9.1 +6.7 85 +9  1009.1  -0.1  746  290           
12 14.10.17 150 (ЮВ) 10 км    10/10 600 м 
[Sc]
+9.3 +6.6 83 +9  1008.8  -0.4  746  290           
15 14.10.17 100 (В) 10 км  слаб. дождь  10/10 300 м 
[Frnb|Ns]
+8.6 +7.4 92 +10  1008.3  -0.5  745  290    +9.7       
18 14.10.17 110 (В) 10 км  слаб. дождь  10/10 200 м 
[Frnb|Ns]
+9.2 +8.5 95 +10  1006.1  -2.1  744  288           
21 14.10.17 130 (ЮВ) 10 км  дождь  10/10 300 м 
[Frnb|Ns]
+9.4 +8.6 95 +9  1004.3  -1.8  743  288           
00 15.10.17 130 (ЮВ) 10 км  дождь  10/10 300 м 
[Frnb|Ns]
+9.5 +8.9 96 +10  1002  -2.3  741  287           
03 15.10.17 180 (Ю) 10 км  слаб. дождь  10/10 300 м 
[Frnb|Ns]
+9.1 +9.1 100 +9  1001.5  -0.5  740  287  +8.6    21    мокрая 
06 15.10.17 190 (Ю) 10 км  {дождь}  9/8 600 м средняя 
[Sc diur, vesp|Ac lent]
+8 +7 93 +9  1002.5  0.9  741  289  +7.4         
09 15.10.17 160 (Ю) 10 км  в посл. час ливневой дождь  10/10 600 м кучево-дожд. 
[Cb cap]
+8.2 +6.4 88 +9  1002  -0.5  741  289           
12 15.10.17 140 (ЮВ) 10 км  слаб. ливневой дождь  10/10 300 м кучево-дожд. 
[Cb cap]
+8.1 +6.1 87 +7  1000.6  -1.4  740  288           
15 15.10.17 150 (ЮВ) 10 км  слаб. ливневой дождь  10/8 300 м кучево-дожд., средняя 
[Cb cap|As op]
+7.3 +5.5 88 +7  999.6  -1  739  289    +9.1     
18 15.10.17 150 (ЮВ) 10 км  слаб. дождь{ливн. осадки}  10/5 200 м средняя 
[Frnb|As op]
+5.9 +4.7 92 +7  999.5  -0.2  739  291           
21 15.10.17 110 (В) 10 км  слаб. дождь  10/6 200 м средняя 
[Frnb|As op]
+5.7 +4.7 93 +7  999.7  0.2  739  291           
00 16.10.17 100 (В) 10 км  {дождь}  10/6 300 м средняя 
[Sc diur, vesp|As op]
+5.5 +4.7 95 +6  1000.3  0.6  739  291           
03 16.10.17 090 (В) 10 км  {дождь}  9/9 300 м 
[Sc diur, vesp]
+5.4 +4.6 95 +6  1001.7  1.3  740  292  +5.3      мокрая 
06 16.10.17 080 (В) 10 км  слаб. дождь  10/10 600 м 
[Sc]
+6.7 +5.6 93 +7  1002.5  0.9  741  291           
09 16.10.17 060 (СВ) 10 км  слаб. дождь  10/10 600 м 
[Sc]
+7.7 +6 89 +8  1003.4  742  290           
12 16.10.17 020 (С) 10 км  {дождь}  10/10 600 м 
[Sc]
+8.2 +6 86 +8  1004.4  0.9  743  289           
15 16.10.17 350 (С) 10 км    9/9 600 м 
[Sc]
+7.6 +5.8 88 +8  1006  1.6  744  291    +8.3       
18 16.10.17 350 (С) 10 км    10/10 600 м 
[Sc]
+7.2 +5.3 88 +7  1006.7  0.6  744  291           
21 16.10.17 350 (С) 10 км    10/10 600 м 
[Sc]
+6.9 +5.4 90 +7  1006.7  744  292           
00 17.10.17 330 (СЗ) 10 км    10/10 600 м 
[Sc]
+6.8 +5.4 91 +8  1006.7  744  292           
03 17.10.17 310 (СЗ) 10 км    10/10 600 м 
[Sc]
+6.7 +5.4 91 +8  1006.9  0.3  744  292  +6.7        влажная 
06 17.10.17 270 (З) 10 км    10/10 600 м 
[Sc]
+6.1 +4.9 92 +6  1007  744  293  +6.1         
09 17.10.17 290 (З) 10 км    10/10 600 м 
[Sc]
+6.8 +4.7 86 +7  1006.3  -0.6  744  292           
12 17.10.17 270 (З) 10 км    9/9 600 м 
[Sc]
+8.5 +2 64 +7  1005.1  -1.1  743  290           
15 17.10.17 270 (З) 10 км  в посл. час дождь  10/10 300 м 
[Ns]
+6.4 +4.2 86 +5  1006  0.8  744  292    +8.9     
18 17.10.17 290 (З) 10 км  в посл. час морось{дождь}  10/4 200 м средняя 
[Frnb|As trans]
+5.6 +3.6 87 +5  1007  744  293           
21 17.10.17 240 (ЮЗ) 10 км    10/10 300 м 
[Sc]
+4.8 +3.2 89 +6  1007.5  0.4  745  294           
00 18.10.17 270 (З) 10 км    10/10 300 м 
[Sc]
+5.2 +3.7 90 +5  1007.6  0.2  745  294           
03 18.10.17 250 (З) 10 км    5/3 300 м средняя 
[Sc|Ac lent]
+3.3 +2 91 +4  1008.3  0.5  745  296  +3.2        влажная 
06 18.10.17 230 (ЮЗ) 10 км    10/4 600 м средняя, верхняя 
[Sc|Ac cast|Ci]
+4.4 +2.2 86 +4  1007.7  -0.5  745  295           
09 18.10.17 230 (ЮЗ) 10 км    10/10 300 м 
[Sc]
+5.9 +2.1 77 +6  1005.5  -2.1  743  293           
12 18.10.17 240 (ЮЗ) 10 км    10/10 300 м 
[Sc]
+6.6 +2.3 74 +5  1003.2  -2.3  742  291           
15 18.10.17 240 (ЮЗ) 10 км  слаб. дождь{морось}  10/10 300 м 
[Ns]
+7 +4.6 85 +6  1002.2  -0.9  741  290    +7       
18 18.10.17 250 (З) 10 км  {дождь}  10/8 300 м средняя 
[Sc|As op]
+8.5 +6.6 88 +8  1000.4  -1.6  740  288           
21 18.10.17 240 (ЮЗ) 10 км  {дождь}  10/10 300 м 
[Sc]
+9.2 +7.4 88 +9  999.5  -0.9  739  287           
00 19.10.17 260 (З) 10 км  {дождь}  10/8 300 м средняя 
[Sc|As trans]
+10 +7.9 87 +10  999.3  -0.2  739  286           
03 19.10.17 240 (ЮЗ) 4{10}  10 км  слаб. дождь  10/8 300 м средняя 
[Sc|As op]
+10.2 +7.7 84 +9  998.4  -0.8  738  285  +7    0.3    мокрая 
06 19.10.17 280 (З) 6-10{14}  10 км  {ливн. осадки, дождь}  8/8 600 м кучево-дожд. 
[Cb cap]
+8.4 +2.6 67 +7  1000.9  2.4  740  289           
09 19.10.17 290 (З) 5-11{12}  10 км    8/8 600 м кучево-дожд. 
[Cb cap]
+8.1 +2.5 68 +7  1003.3  2.4  742  290           
12 19.10.17 280 (З) 6-13{13}  10 км  ливневой дождь  10/10 300 м кучево-дожд. 
[Cb cap]
+7.7 +1.6 65 +6  1005.9  2.5  744  291           
15 19.10.17 280 (З) 3{13}  10 км  {ливн. осадки}  6/6 600 м кучево-дожд. 
[Cb cap]
+5.9 +2.5 79 +5  1008.1  2.1  745  294    +10.3  0.8     
18 19.10.17 280 (З) 4-11{11}  10 км  {ливн. осадки}  5/5 600 м 
[Sc diur, vesp]
+5.6 +2 78 +4  1009.2  746  294           
21 19.10.17 290 (З) 10 км    6/6 600 м 
[Sc diur, vesp]
+5.3 +1.5 76 +4  1009.9  0.7  746  295           
00 20.10.17 290 (З) 10 км    8/8 300 м кучево-дожд. 
[Cb cap]
+4.8 +0.7 75 +3  1010.8  0.8  747  296           
03 20.10.17 310 (СЗ) 3{11}  10 км    9/9 300 м 
[Sc diur, vesp]
+4.2 -0.5 71 +3  1012  1.2  748  297  +4.2        влажная 
06 20.10.17 310 (СЗ) 10 км    6/6 600 м кучево-дожд. 
[Cb cap]
+4 -1.4 68 +4  1013.5  1.5  749  298  +3.8         
09 20.10.17 290 (З) 10 км    8/8 600 м кучево-дожд. 
[Cb cap]
+6 -4 49 +5  1014.3  0.9  750  296           
12 20.10.17 350 (С) 10 км    9/9 600 м 
[Sc]
+3.6 -5 53 +3  1015.7  1.2  751  299           
15 20.10.17 320 (СЗ) 10 км    10/10 600 м 
[Sc]
+2.4 -4.4 61 +2  1017  1.2  752  301    +6.1       
18 20.10.17 330 (СЗ) 10 км  {снег}  10/10 600 м 
[Sc]
+2.2 -5.1 58 +3  1017.3  0.3  752  301           
21 20.10.17 330 (СЗ) 10 км    10/10 600 м 
[Sc]
+1.2 -3.7 70 +2  1017.1  -0.2  752  302           
00 21.10.17 010 (С) 10 км    10/10 600 м 
[Sc]
+0.9 -4.9 65 +2  1017  -0.2  752  302           
03 21.10.17 тихо ()   10 км    9/5 600 м средняя 
[Sc|Ac lent]
-0.8 -4.5 76 -1  1016.7  -0.4  751  304  -0.8    0.0    замёрзшая 
06 21.10.17 300 (СЗ) 10 км    9/9 600 м 
[Sc]
+1.4 -5.9 58 +2  1016.6  751  302  -0.9         
09 21.10.17 290 (З) 10 км    9/9 600 м 
[Cu Sc]
+2.3 -5 58 +1  1016  -0.5  751  301           
12 21.10.17 260 (З) 10 км    9/9 600 м 
[Sc]
+1.9 -4.1 64 1015.4  -0.7  750  301           
15 21.10.17 260 (З) 10 км    9/9 600 м кучево-дожд. 
[Cb cap]
+1.6 -2.6 74 +2  1015.3  0.1  750  301    +2.6       
18 21.10.17 310 (СЗ) 10 км  в посл. час дождь со снегом  10/10 600 м 
[Sc diur, vesp]
+0.7 -2.6 79 +1  1015.4  750  302           
21 21.10.17 280 (З) 10 км    3/0 средняя 
[Ac lent]
-0.8 -3.4 83 1015.6  0.2  750  304           
00 22.10.17 300 (СЗ) 10 км    3/0 средняя 
[Ac lent]
-1.6 -4 84 -1  1015.3  -0.4  750  304           
03 22.10.17 270 (З) 10 км  слаб. снег  10/10 600 м 
[Sc diur, vesp]
-0.9 -2.6 88 1015.3  0.1  750  304  -2.8    0.0    замёрзшая 
06 22.10.17 250 (З) 10 км  {снег}  9/9 600 м 
[Sc]
+0.2 -1.7 87 +1  1015.5  0.2  750  302           
09 22.10.17 300 (СЗ) 10 км  слаб. крупа{снег}  9/9 600 м кучево-дожд. 
[Cb cap]
+0.7 -2.4 80 +1  1015.4  0.1  750  302           
12 22.10.17 240 (ЮЗ) 10 км  {ливн. осадки, снег}  9/9 600 м 
[Sc diur, vesp]
+1 -3.8 70 +2  1015.1  -0.3  750  302           
15 22.10.17 310 (СЗ) 10 км    8/8 600 м 
[Sc]
+0 -5.1 68 -1  1015.8  0.6  751  303    +1  0.0     
18 22.10.17 260 (З) 10 км    9/6 600 м средняя 
[Sc|Ac As]
-0.1 -5.6 66 -1  1016.1  0.3  751  303           
21 22.10.17 260 (З) 10 км    10/3 600 м средняя 
[Sc|Ac As]
-1 -5.4 72 1016  -0.1  751  304           
00 23.10.17 тихо ()   10 км    10/3 600 м средняя 
[Sc|Ac As]
-1.1 -4.9 75 -1  1016  751  304           
03 23.10.17 150 (ЮВ) 10 км    9/9 600 м 
[Sc]
-1.4 -4.9 77 -1  1016.2  0.1  751  305  -1.4        замёрзшая 
06 23.10.17 150 (ЮВ) 10 км    9/9 300 м средняя 
[Sc|Ac As]
-0.3 -3.8 77 1016.6  0.5  751  303           
09 23.10.17 250 (З) 10 км    10/8 300 м кучево-дожд., верхняя 
[Cb cap|Ci fib]
+1.4 -4.9 63 +1  1016.7  0.2  751  302           
12 23.10.17 090 (В) 10 км    10/8 300 м кучево-дожд., верхняя 
[Cb cap|Ci fib]
+1.4 -5.3 61 +2  1017.3  0.6  752  302           
15 23.10.17 110 (В) 10 км  {ливн. осадки}  9/9 600 м кучево-дожд. 
[Cb cap]
-1.1 -2.4 91 -1  1019.1  1.6  753  305    +1.7  11     
18 23.10.17 120 (ЮВ) 10 км    8/8 600 м 
[Sc diur, vesp]
-1.3 -2.5 92 -1  1019.9  0.8  754  305           
21 23.10.17 110 (В) 10 км    8/8 600 м 
[Sc diur, vesp]
-2.3 -3.3 93 -2  1021.3  1.3  755  307           
00 24.10.17 340 (С) 10 км    6/6 600 м 
[Sc]
-2.3 -3.2 94 -2  1023  1.7  756  308           
03 24.10.17 350 (С) 10 км    10/8 300 м средняя 
[Sc|As trans]
-1.5 -2.5 93 -1  1024.4  1.4  757  307  -3.3         
06 24.10.17 010 (С) 10 км    9/8 600 м кучево-дожд., средняя 
[Cb cap|Ac lent]
-0.3 -2.2 87 -1  1026.2  1.9  758  306           
09 24.10.17 290 (З) 10 км    9/9 600 м кучево-дожд. 
[Cb cap]
+0.2 -3.3 77 -1  1027.9  1.7  760  306           
12 24.10.17 280 (З) 10 км    5/5 600 м кучево-дожд. 
[Cb cap]
+0.7 -3.9 71 -2  1029  1.1  760  306           
15 24.10.17 320 (СЗ) 10 км    9/9 600 м 
[Sc]
-0.1 -5.6 66 -1  1030.1  1.1  761  307    +0.9       
18 24.10.17 310 (СЗ) 10 км    10/10 600 м 
[Sc]
-0.6 -7.1 61 -1  1031.3  1.1  762  309           
21 24.10.17 310 (СЗ) 10 км    10/10 600 м 
[Sc]
-0.4 -6.1 65 1032.1  0.8  763  308           
00 25.10.17 320 (СЗ) 10 км    10/10 600 м 
[Sc]
-0.8 -5.5 70 1032.9  0.8  763  309           
03 25.10.17 290 (З) 10 км  слаб. снег  10/10 600 м 
[Sc]
-0.9 -5 74 1033.7  0.8  764  309  -1.1    0.0    замёрзшая 
06 25.10.17 270 (З) 10 км  слаб. снег  10/10 600 м 
[Sc]
-0.5 -3.9 78 -1  1034.9  1.2  765  309           
09 25.10.17 270 (З) 10 км  слаб. снег  10/10 600 м 
[Sc]
+0.1 -3.9 74 -1  1035.5  0.6  765  309           
12 25.10.17 тихо ()   10 км  слаб. снег  10/8 600 м средняя 
[Sc|As op]
+0.2 -4.7 70 1035.1  -0.3  765  309           
15 25.10.17 110 (В) 10 км  слаб. снег  10/5 600 м средняя 
[Sc|As op]
-0.5 -4.4 75 1034.9  -0.3  765  309    +0.3  0.0     
18 25.10.17 150 (ЮВ) 10 км  в посл. час снег  10/8 600 м средняя 
[Sc|As op]
-0.8 -3.5 82 1034.7  -0.2  765  309           
21 25.10.17 150 (ЮВ) 10 км    10/3 600 м средняя 
[Sc|As op]
-1.1 -4.4 78 -1  1033.8  -0.9  764  310           
00 26.10.17 100 (В) 10 км    10/5 300 м средняя 
[Sc|As op]
-1.6 -4.2 82 -1  1032.6  -1.2  763  310           
03 26.10.17 100 (В) 10 км    10/8 600 м средняя 
[Sc|As op]
-1.9 -4.6 82 -3  1031  -1.6  762  310  -1.9    0.0    замёрзшая 
06 26.10.17 120 (ЮВ) 10 км    10/10 600 м 
[Sc]
-1.1 -5.4 73 -2  1029.5  -1.4  761  308  -1.9         
09 26.10.17 160 (Ю) 10 км    9/8 300 м кучево-дожд., средняя 
[Cb cap|Ac cast]
+0.3 -6.5 60 +1  1027.6  -1.9  759  306           
12 26.10.17 130 (ЮВ) 10 км    10/5 600 м средняя 
[Sc diur, vesp|Ac As]
-1 -5.6 71 -2  1025.7  -1.9  758  307           
15 26.10.17 130 (ЮВ) 10 км    8/8 600 м 
[Sc]
-1.6 -6.3 70 -1  1023.9  -1.7  757  307    +0.4       
18 26.10.17 100 (В) 10 км    8/8 600 м 
[Sc]
-2.2 -6.1 75 -2  1022.3  -1.6  755  307           
21 26.10.17 100 (В) 10 км    8/8 600 м 
[Sc]
-2.3 -6.2 75 -2  1020.5  -1.8  754  307           
00 27.10.17 100 (В) 10 км  слаб. снег  10/3 600 м средняя 
[Sc|As op]
-2.7 -5.3 82 -2  1019.4  -1.1  753  307           
03 27.10.17 090 (В) 10 км  {снег}  10/0 средняя 
[Ac As]
-2.9 -4.8 87 -2  1017.6  -1.8  752  307  -2.9    0.0  <0.5  равномерный
сухой снег
100% 
06 27.10.17 100 (В) 10 км  {снег}  5/0 средняя 
[Ac As]
-1.9 -4.5 82 -3  1016.4  -1.1  751  305  -3.1         
09 27.10.17 140 (ЮВ) 10 км    6/6 1000 м кучево-дожд. 
[Cb cap]
+0.3 -8.1 53 1015.2  -1.1  750  303           
12 27.10.17 160 (Ю) 10 км    6/4 600 м кучево-дожд., средняя 
[Cb cap|Ac lent]
-0.3 -8.5 54 1014.3  -0.9  749  303           
15 27.10.17 100 (В) 10 км    4/0 средняя 
[Ac lent]
-2.8 -6.4 76 -2  1014  -0.4  749  306    +0.6       
18 27.10.17 100 (В) 10 км    6/0 средняя 
[Ac As]
-3.8 -6.6 81 -3  1014  0.1  749  307           
21 27.10.17 100 (В) 10 км    8/0 средняя 
[Ac As]
-3.3 -6.4 79 -3  1013.3  -0.6  749  306           
00 28.10.17 090 (В) 10 км    10/4 600 м средняя 
[Sc|Ac As]
-3.1 -6 80 -3  1012.5  -0.8  748  306           
03 28.10.17 100 (В) 10 км    9/4 600 м средняя 
[Sc|Ac As]
-4 -6.2 85 -5  1011.9  -0.6  748  306  -4         
06 28.10.17 100 (В) 10 км    9/0 средняя 
[Ac lent]
-3.2 -5.5 84 -4  1011.8  0.1  748  305  -4.3         
09 28.10.17 120 (ЮВ) 10 км    10/10 600 м 
[Sc]
-1.7 -5.1 78 -4  1011.3  -0.4  747  304           
12 28.10.17 110 (В) 10 км  слаб. снег  10/10 600 м 
[Sc]
-1.4 -4.8 78 -2  1010.8  -0.4  747  303           
15 28.10.17 130 (ЮВ) 10 км  в посл. час снег  10/10 600 м 
[Sc]
-1.8 -4.8 80 -3  1010.8  747  303    -1.3  0.0     
18 28.10.17 120 (ЮВ) 10 км  {снег}  10/10 600 м 
[Sc]
-1.9 -4.6 82 -1  1010.6  -0.2  747  303           
21 28.10.17 130 (ЮВ) 10 км    10/10 600 м 
[Sc]
-1.8 -3.9 86 -3  1009.9  -0.6  746  303           
00 29.10.17 110 (В) 10 км    10/10 600 м 
[Sc]
-1.4 -2.7 91 -2  1007.7  -2.1  745  302           
03 29.10.17 110 (В) 10 км  слаб. дождь{снег}  10/10 600 м 
[Sc]
-0.6 -1.8 92 -1  1005  -2.6  743  300  -2    0.0     
06 29.10.17 110 (В) 10 км  слаб. дождь{снег} [диам. гололёда 1 мм]  10/10 300 м 
[Ns]
+0.7 -0.1 94 -1  1001  -3.8  740  297           
09 29.10.17 150 (ЮВ) 10 км  слаб. дождь  10/10 300 м 
[Ns]
+4.2 +3.3 94 +2  996.6  -4.1  737  292           
12 29.10.17 150 (ЮВ) 2{11}  10 км  слаб. дождь{морось}  10/10 300 м 
[Ns]
+5.3 +4.5 95 +5  994.9  -1.7  735  290           
15 29.10.17 140 (ЮВ) 10 км  слаб. дождь  10/10 300 м 
[Frnb|Ns]
+5.1 +4.4 95 +5  994.7  -0.2  735  290    +5.3  12     
18 29.10.17 170 (Ю) 10 км  слаб. дождь{ливн. осадки}  10/10 300 м 
[Frnb|Ns]
+5.8 +5.3 97 +7  995.5  0.8  736  289           
21 29.10.17 140 (ЮВ) 10 км  {ливн. осадки, дождь}  ясно 
+3.9 +3 94 +5  997.6  1.9  737  292           
00 30.10.17 120 (ЮВ) 10 км  {ливн. осадки, дождь}  ясно 
+2.3 +1.6 95 +3  998.4  0.8  738  295           
03 30.10.17 120 (ЮВ) 1000 м  дымка  9/9 300 м 
[Sc]
+2.4 +2.3 99 +3  999  0.6  738  295  +2.2      мокрая 
06 30.10.17 090 (В) 1000 м  дымка{туман}  8/0 средняя 
[Ac cast]
+2.9 +2.9 100 +4  999.5  0.5  739  294  +1.3         
09 30.10.17 140 (ЮВ) 10 км    10/3 600 м средняя, верхняя 
[Sc|Ac cast|Ci fib]
+6.3 +4 85 +7  998.5  -0.8  738  290           
12 30.10.17 130 (ЮВ) 10 км    10/0 средняя, верхняя 
[Ac lent|Ci]
+7.6 +3.1 73 +9  997.9  -0.6  738  289           
15 30.10.17 090 (В) 10 км    10/0 средняя, верхняя 
[Ac cast|Ci fib]
+5.4 +3.5 88 +5  997.2  -0.8  737  291    +7.7  0.0     
18 30.10.17 120 (ЮВ) 1000 м  дымка{туман, дождь}  10/10 100 м 
[Frnb|Ns]
+6.9 +6.9 100 +6  995  -2.1  736  288           
21 30.10.17 110 (В) 10 км  слаб. дождь  10/10 300 м 
[Frnb|Ns]
+6.3 +6.3 100 +6  991.5  -3.4  733  288           
00 31.10.17 120 (ЮВ) 10 км  слаб. дождь{ливн. осадки}  10/10 300 м кучево-дожд. 
[Cb cap]
+5.7 +5.7 100 +4  986.4  -5  729  287           
03 31.10.17 140 (ЮВ) 3{10}  10 км  слаб. дождь  10/10 200 м 
[Frnb|Ns]
+6.5 +6.3 99 +6  983.2  -3.1  727  285  +5.3      мокрая 
06 31.10.17 200 (Ю) 10 км  в посл. час дождь  10/10 200 м кучево-дожд. 
[Cb cap]
+6.6 +5.7 94 +6  983.6  0.3  727  285           
09 31.10.17 210 (ЮЗ) 10 км    9/8 300 м кучево-дожд., средняя, верхняя 
[Cb calv|Ac lent|Ci sp]
+6.3 +1.6 72 +6  984.2  0.5  728  286           
12 31.10.17 170 (Ю) 10 км  в посл. час дождь  10/10 200 м кучево-дожд. 
[Cb cap]
+4.4 +1.6 82 +4  984.5  0.2  728  288           
15 31.10.17 150 (ЮВ) 10 км  слаб. дождь  10/10 200 м 
[Frnb|Ns]
+4 +1.6 84 +4  984  -0.4  727  289    +7.1       
18 31.10.17 160 (Ю) 10 км  слаб. дождь  10/10 200 м 
[Frnb|Ns]
+3.3 +1.8 90 +3  983.1  -1  727  289           
21 31.10.17 160 (Ю) 10 км  слаб. дождь  10/10 200 м 
[Frnb|Ns]
+2.9 +1.6 91 +2  982.4  -0.7  726  289           
00 01.11.17 170 (Ю) 4000 м  дождь  10/10 200 м 
[Frnb|Ns]
+2.2 +0.9 91 +2  981.3  -1.1  725  290           
03 01.11.17 190 (Ю) 10 км  слаб. дождь  10/10 200 м 
[Frnb|Ns]
+2.3 +1 91 +2  981.2  -0.1  725  290  +1.8       
Время (UTC), дата Ветер
(°,м/с) 
Видим.   Явления Облачность Т
(°С)
Тd
(°С)
f(%) Тe
(°С)
Pmin
(гПа)
dP
(гПа)
Po
(мм)
O2
(г/м3)
Тmin Tmax R s Состояние
почвы